Time,TemperatureF,DewpointF,PressureIn,WindDirection,WindDirectionDegrees,WindSpeedMPH,WindSpeedGustMPH,Humidity,HourlyPrecipIn,Conditions,Clouds,dailyrainin,SolarRadiationWatts/m^2,SoftwareType,DateUTC
2013-01-23 00:01:00,20.9,17.0,29.90,ENE,76,0.0,-999.0,84,-99.99,,,0.00,0,weatherlink.com 1.10,2013-01-22 23:01:00,
2013-01-23 00:31:00,20.9,17.0,29.89,ENE,76,0.0,-999.0,84,-99.99,,,0.00,0,weatherlink.com 1.10,2013-01-22 23:31:00,
2013-01-23 01:01:00,20.9,17.0,29.89,ENE,76,0.0,-999.0,85,-99.99,,,0.00,0,weatherlink.com 1.10,2013-01-23 00:01:00,
2013-01-23 01:16:00,20.9,17.0,29.89,ENE,76,0.0,-999.0,85,-99.99,,,0.00,0,weatherlink.com 1.10,2013-01-23 00:16:00,
2013-01-23 01:31:00,20.8,19.0,29.89,ENE,76,0.0,-999.0,92,-99.99,,,0.00,0,weatherlink.com 1.10,2013-01-23 00:31:00,
2013-01-23 01:46:00,20.8,17.0,29.88,ENE,76,0.0,-999.0,85,-99.99,,,0.00,0,weatherlink.com 1.10,2013-01-23 00:46:00,
2013-01-23 02:01:00,20.7,17.0,29.89,ENE,76,0.0,-999.0,85,-99.99,,,0.00,0,weatherlink.com 1.10,2013-01-23 01:01:00,
2013-01-23 02:16:00,20.7,17.0,29.89,ENE,76,0.0,-999.0,85,-99.99,,,0.00,0,weatherlink.com 1.10,2013-01-23 01:16:00,
2013-01-23 02:31:00,20.6,17.0,29.89,ENE,76,0.0,-999.0,85,-99.99,,,0.00,0,weatherlink.com 1.10,2013-01-23 01:31:00,
2013-01-23 02:46:00,20.6,17.0,29.89,ENE,76,0.0,-999.0,85,-99.99,,,0.00,0,weatherlink.com 1.10,2013-01-23 01:46:00,
2013-01-23 03:01:00,20.6,17.0,29.89,ENE,76,0.0,-999.0,85,-99.99,,,0.00,0,weatherlink.com 1.10,2013-01-23 02:01:00,
2013-01-23 03:16:00,20.6,17.0,29.89,ENE,76,0.0,-999.0,85,-99.99,,,0.00,0,weatherlink.com 1.10,2013-01-23 02:16:00,
2013-01-23 03:31:00,20.7,17.0,29.89,ENE,76,0.0,-999.0,85,-99.99,,,0.00,0,weatherlink.com 1.10,2013-01-23 02:31:00,
2013-01-23 03:46:00,20.7,17.0,29.89,ENE,76,0.0,-999.0,85,-99.99,,,0.00,0,weatherlink.com 1.10,2013-01-23 02:46:00,
2013-01-23 04:17:00,20.7,17.0,29.89,ENE,76,0.0,-999.0,86,-99.99,,,0.00,0,weatherlink.com 1.10,2013-01-23 03:17:00,
2013-01-23 04:31:00,20.7,17.0,29.89,ENE,76,0.0,-999.0,86,-99.99,,,0.00,0,weatherlink.com 1.10,2013-01-23 03:31:00,
2013-01-23 04:46:00,20.7,17.0,29.89,ENE,76,0.0,-999.0,86,-99.99,,,0.00,0,weatherlink.com 1.10,2013-01-23 03:46:00,
2013-01-23 05:01:00,20.8,17.0,29.89,ENE,76,0.0,-999.0,86,-99.99,,,0.00,0,weatherlink.com 1.10,2013-01-23 04:01:00,
2013-01-23 05:16:00,20.8,17.0,29.89,ENE,76,0.0,-999.0,86,-99.99,,,0.00,0,weatherlink.com 1.10,2013-01-23 04:16:00,
2013-01-23 05:31:00,20.8,17.0,29.90,ENE,76,0.0,-999.0,86,-99.99,,,0.00,0,weatherlink.com 1.10,2013-01-23 04:31:00,
2013-01-23 05:46:00,20.9,17.0,29.90,ENE,76,0.0,-999.0,86,-99.99,,,0.00,0,weatherlink.com 1.10,2013-01-23 04:46:00,
2013-01-23 06:31:00,20.9,17.0,29.90,ENE,76,0.0,-999.0,86,-99.99,,,0.00,0,weatherlink.com 1.10,2013-01-23 05:31:00,
2013-01-23 06:46:00,20.9,17.0,29.90,ENE,76,0.0,-999.0,86,-99.99,,,0.00,0,weatherlink.com 1.10,2013-01-23 05:46:00,
2013-01-23 07:01:00,21.0,18.0,29.90,ENE,76,0.0,-999.0,86,-99.99,,,0.00,0,weatherlink.com 1.10,2013-01-23 06:01:00,
2013-01-23 07:16:00,21.1,18.0,29.90,ENE,76,0.0,-999.0,86,-99.99,,,0.00,0,weatherlink.com 1.10,2013-01-23 06:16:00,
2013-01-23 07:46:00,21.1,18.0,29.91,ENE,76,0.0,-999.0,86,-99.99,,,0.00,0,weatherlink.com 1.10,2013-01-23 06:46:00,
2013-01-23 08:01:00,21.1,18.0,29.91,ENE,76,0.0,-999.0,86,-99.99,,,0.00,0,weatherlink.com 1.10,2013-01-23 07:01:00,
2013-01-23 08:16:00,21.1,18.0,29.91,ENE,76,0.0,-999.0,86,-99.99,,,0.00,7,weatherlink.com 1.10,2013-01-23 07:16:00,
2013-01-23 08:31:00,21.2,18.0,29.91,ENE,76,0.0,-999.0,86,-99.99,,,0.00,12,weatherlink.com 1.10,2013-01-23 07:31:00,
2013-01-23 08:46:00,21.3,18.0,29.91,ENE,76,0.0,-999.0,87,-99.99,,,0.00,19,weatherlink.com 1.10,2013-01-23 07:46:00,
2013-01-23 09:01:00,21.6,18.0,29.91,ENE,76,0.0,-999.0,87,-99.99,,,0.00,25,weatherlink.com 1.10,2013-01-23 08:01:00,
2013-01-23 09:31:00,22.1,19.0,29.91,ENE,76,0.0,-999.0,87,-99.99,,,0.00,33,weatherlink.com 1.10,2013-01-23 08:31:00,
2013-01-23 10:01:00,22.8,20.0,29.91,ENE,76,0.0,-999.0,87,-99.99,,,0.00,44,weatherlink.com 1.10,2013-01-23 09:01:00,
2013-01-23 10:31:00,23.1,20.0,29.91,ENE,58,0.0,-999.0,86,-99.99,,,0.00,42,weatherlink.com 1.10,2013-01-23 09:31:00,
2013-01-23 10:46:00,23.3,20.0,29.91,NNW,329,1.0,-999.0,85,-99.99,,,0.00,44,weatherlink.com 1.10,2013-01-23 09:46:00,
2013-01-23 11:01:00,23.4,20.0,29.91,ENE,57,0.0,-999.0,85,-99.99,,,0.00,47,weatherlink.com 1.10,2013-01-23 10:01:00,
2013-01-23 11:16:00,23.5,20.0,29.91,ENE,57,4.0,-999.0,85,-99.99,,,0.00,54,weatherlink.com 1.10,2013-01-23 10:16:00,
2013-01-23 11:46:00,23.8,20.0,29.90,East,89,1.0,-999.0,84,-99.99,,,0.00,56,weatherlink.com 1.10,2013-01-23 10:46:00,
2013-01-23 12:01:00,24.0,20.0,29.91,ENE,63,0.0,-999.0,84,-99.99,,,0.00,49,weatherlink.com 1.10,2013-01-23 11:01:00,
2013-01-23 12:16:00,24.2,20.0,29.91,NE,38,0.0,-999.0,84,-99.99,,,0.00,54,weatherlink.com 1.10,2013-01-23 11:16:00,
2013-01-23 12:31:00,24.5,20.0,29.91,NE,38,0.0,-999.0,83,-99.99,,,0.00,60,weatherlink.com 1.10,2013-01-23 11:31:00,
2013-01-23 13:46:00,25.2,20.0,29.90,NE,38,0.0,-999.0,82,-99.99,,,0.00,40,weatherlink.com 1.10,2013-01-23 12:46:00,
2013-01-23 14:02:00,25.3,21.0,29.90,NE,39,0.0,-999.0,82,-99.99,,,0.00,42,weatherlink.com 1.10,2013-01-23 13:02:00,
2013-01-23 14:16:00,25.3,21.0,29.90,NE,39,0.0,-999.0,82,-99.99,,,0.00,32,weatherlink.com 1.10,2013-01-23 13:16:00,
2013-01-23 14:31:00,25.3,21.0,29.90,NE,39,0.0,-999.0,82,-99.99,,,0.00,28,weatherlink.com 1.10,2013-01-23 13:31:00,
2013-01-23 14:46:00,25.2,20.0,29.90,NE,39,0.0,-999.0,82,-99.99,,,0.00,26,weatherlink.com 1.10,2013-01-23 13:46:00,
2013-01-23 15:01:00,25.1,20.0,29.90,NE,39,0.0,-999.0,82,-99.99,,,0.00,28,weatherlink.com 1.10,2013-01-23 14:01:00,
2013-01-23 15:16:00,25.0,20.0,29.90,NE,39,0.0,-999.0,82,-99.99,,,0.00,23,weatherlink.com 1.10,2013-01-23 14:16:00,
2013-01-23 15:31:00,25.0,20.0,29.91,NE,39,0.0,-999.0,82,-99.99,,,0.00,12,weatherlink.com 1.10,2013-01-23 14:31:00,
2013-01-23 15:46:00,24.9,20.0,29.91,NE,39,0.0,-999.0,82,-99.99,,,0.00,9,weatherlink.com 1.10,2013-01-23 14:46:00,
2013-01-23 16:01:00,24.9,20.0,29.91,NE,39,0.0,-999.0,83,-99.99,,,0.00,5,weatherlink.com 1.10,2013-01-23 15:01:00,
2013-01-23 16:16:00,24.8,20.0,29.91,NE,39,0.0,-999.0,82,-99.99,,,0.00,0,weatherlink.com 1.10,2013-01-23 15:16:00,
2013-01-23 16:31:00,24.6,20.0,29.91,NE,39,0.0,-999.0,83,-99.99,,,0.00,0,weatherlink.com 1.10,2013-01-23 15:31:00,
2013-01-23 16:46:00,24.4,20.0,29.91,NE,39,0.0,-999.0,83,-99.99,,,0.00,0,weatherlink.com 1.10,2013-01-23 15:46:00,
2013-01-23 17:01:00,24.3,20.0,29.91,NE,39,0.0,-999.0,83,-99.99,,,0.00,0,weatherlink.com 1.10,2013-01-23 16:01:00,
2013-01-23 17:16:00,24.2,20.0,29.91,NE,39,0.0,-999.0,84,-99.99,,,0.00,0,weatherlink.com 1.10,2013-01-23 16:16:00,
2013-01-23 17:31:00,24.0,20.0,29.90,NE,39,0.0,-999.0,84,-99.99,,,0.00,0,weatherlink.com 1.10,2013-01-23 16:31:00,
2013-01-23 17:46:00,24.0,20.0,29.91,NE,46,0.0,-999.0,84,-99.99,,,0.00,0,weatherlink.com 1.10,2013-01-23 16:46:00,
2013-01-23 18:01:00,24.0,20.0,29.91,NE,46,0.0,-999.0,84,-99.99,,,0.00,0,weatherlink.com 1.10,2013-01-23 17:01:00,
2013-01-23 18:16:00,23.9,20.0,29.91,NE,46,0.0,-999.0,84,-99.99,,,0.00,0,weatherlink.com 1.10,2013-01-23 17:16:00,
2013-01-23 18:31:00,23.9,20.0,29.91,NE,46,0.0,-999.0,84,-99.99,,,0.00,0,weatherlink.com 1.10,2013-01-23 17:31:00,
2013-01-23 18:46:00,23.9,20.0,29.92,NE,46,0.0,-999.0,85,-99.99,,,0.00,0,weatherlink.com 1.10,2013-01-23 17:46:00,
2013-01-23 19:01:00,23.9,20.0,29.91,NE,46,0.0,-999.0,85,-99.99,,,0.00,0,weatherlink.com 1.10,2013-01-23 18:01:00,
2013-01-23 19:16:00,23.8,20.0,29.91,NE,46,0.0,-999.0,85,-99.99,,,0.00,0,weatherlink.com 1.10,2013-01-23 18:16:00,
2013-01-23 19:31:00,23.9,20.0,29.91,NE,46,0.0,-999.0,85,-99.99,,,0.00,0,weatherlink.com 1.10,2013-01-23 18:31:00,
2013-01-23 19:46:00,23.9,20.0,29.92,NE,46,0.0,-999.0,85,-99.99,,,0.00,0,weatherlink.com 1.10,2013-01-23 18:46:00,
2013-01-23 20:01:00,23.9,20.0,29.92,NE,46,0.0,-999.0,85,-99.99,,,0.00,0,weatherlink.com 1.10,2013-01-23 19:01:00,
2013-01-23 20:16:00,24.0,20.0,29.91,NE,46,0.0,-999.0,85,-99.99,,,0.00,0,weatherlink.com 1.10,2013-01-23 19:16:00,
2013-01-23 20:31:00,24.0,20.0,29.91,NE,46,0.0,-999.0,85,-99.99,,,0.00,0,weatherlink.com 1.10,2013-01-23 19:31:00,
2013-01-23 20:46:00,24.0,20.0,29.91,NE,46,0.0,-999.0,85,-99.99,,,0.00,0,weatherlink.com 1.10,2013-01-23 19:46:00,
2013-01-23 21:01:00,24.0,20.0,29.92,NE,46,0.0,-999.0,85,-99.99,,,0.00,0,weatherlink.com 1.10,2013-01-23 20:01:00,
2013-01-23 21:16:00,24.0,20.0,29.92,NE,46,0.0,-999.0,85,-99.99,,,0.00,0,weatherlink.com 1.10,2013-01-23 20:16:00,
2013-01-23 21:31:00,24.0,20.0,29.92,NE,51,0.0,-999.0,85,-99.99,,,0.00,0,weatherlink.com 1.10,2013-01-23 20:31:00,
2013-01-23 21:46:00,23.9,20.0,29.92,NE,50,0.0,-999.0,85,-99.99,,,0.00,0,weatherlink.com 1.10,2013-01-23 20:46:00,
2013-01-23 22:01:00,23.8,20.0,29.92,ENE,58,0.0,-999.0,85,-99.99,,,0.00,0,weatherlink.com 1.10,2013-01-23 21:01:00,
2013-01-23 22:17:00,23.6,20.0,29.92,ENE,58,0.0,-999.0,85,-99.99,,,0.00,0,weatherlink.com 1.10,2013-01-23 21:17:00,
2013-01-23 22:31:00,23.6,20.0,29.92,ENE,58,0.0,-999.0,85,-99.99,,,0.00,0,weatherlink.com 1.10,2013-01-23 21:31:00,
2013-01-23 22:46:00,23.5,20.0,29.92,ENE,58,0.0,-999.0,85,-99.99,,,0.00,0,weatherlink.com 1.10,2013-01-23 21:46:00,
2013-01-23 23:01:00,23.5,20.0,29.92,ENE,58,0.0,-999.0,85,-99.99,,,0.00,0,weatherlink.com 1.10,2013-01-23 22:01:00,
2013-01-23 23:16:00,23.4,20.0,29.92,ENE,58,0.0,-999.0,86,-99.99,,,0.00,0,weatherlink.com 1.10,2013-01-23 22:16:00,
2013-01-23 23:31:00,23.4,20.0,29.92,ENE,58,0.0,-999.0,86,-99.99,,,0.00,0,weatherlink.com 1.10,2013-01-23 22:31:00,
2013-01-23 23:47:00,23.4,20.0,29.91,ENE,58,0.0,-999.0,86,-99.99,,,0.00,0,weatherlink.com 1.10,2013-01-23 22:47:00,